Погода в Цинъяне

Китай     24°49′04″N   118°34′33″E
темп.,
°C
ветер,
м/с
пор.,
м/с
влажн.,
%
обл.,
%
осадки,
мм/ч
давл.,
гПа
погр.,
м
23 октября, сб
сб2323:00+18ссв41167100 0.0 10221114
02:00+18ссв41165100 0.0 10211132
05:00+18ссв5116499 0.0 10211075
08:00+19ссв41063100 0.0 10231148
11:00+20ссв6125995 0.0 10231121
14:00+20с6106096 0.0 1020982
17:00+20с4106398 0.1 10211023
20:00+19с41066100 0.1 1022873
24 октября, вс
вс2423:00+19с41067100 0.0 1022934
02:00+18с4971100 0.1 1021544
05:00+17с3784100 0.8 1020300
08:00+18с377595 0.8 1021378
11:00+21с476294 0.0 1021714
14:00+24ссв565464 0.0 10181263
17:00+23св4660100 0.0 10181226
20:00+21св4763100 0.0 1020609
25 октября, пн
пн2523:00+21ссв366599 0.0 1021547
02:00+19с356896 0.0 1019358
05:00+19с3567100 0.0 1019330
08:00+20с366289 0.0 1020484
11:00+24св46478 0.0 10191222
14:00+26св67441 0.0 10161480
17:00+23всв69615 0.0 1016711
20:00+22св5106477 0.0 1018872
26 октября, вт
вт2623:00+21ссв4106624 0.0 1018882
02:00+21с49695 0.0 1017755
05:00+20с38725 0.0 1017352
08:00+22ссв48637 0.0 1018716
11:00+26св575036 0.0 10171382
14:00+27всв775178 0.0 10151570
17:00+24всв796581 0.0 1015762
20:00+22св6117024 0.0 1017727
27 октября, ср
ср2723:00+21ссв387123 0.0 1017608
02:00+21ссв277152 0.0 1017476
05:00+21с257449 0.0 1017262
08:00+22ссв356851 0.0 1018450
11:00+25св565417 0.0 10181367
14:00+26всв665565 0.0 10161324
17:00+24св696333 0.0 1016954
20:00+22св6117114 0.0 1018814